Tracking 29892 objects as of 21-Nov-2024
HD Live streaming from Space Station
objects crossing your sky now

SL-12 R/B(2)

Track SL-12 R/B(2) now!


NORAD ID: 28256
Int'l Code: 2004-010F
Perigee: 35,730.5 km
Apogee: 35,938.1 km
Inclination: 13.0 °
Period: 1,438.2 minutes
Semi major axis: 42205 km
RCS: 0.003 m2 (small)
Launch date: March 27, 2004
Source: Commonwealth of Independent States (former USSR) (CIS)
Launch site: TYURATAM MISSILE AND SPACE COMPLEX (TTMTR)

Note: This is a ROCKET BODY
Your satellite tracking list
Your tracking list is empty




NASA's NSSDC Master Catalog

Two Line Element Set (TLE):
1 28256U 04010F   24325.39841022  .00000071  00000-0  00000-0 0  9991
2 28256  13.0437  25.4397 0024595 359.4336  10.4498  1.00127316 74920
Source of the keplerian elements: AFSPC